Dewpoint
69 69 70 62 52 53 51 53 56 55 55 57 56 54 54 57 53 50 66 67 66 68 70 73 73 71 72 73 73 72 72 73 73 73 72 71 71 71 71 71 71 71 72 71 71 71 71 71 70
67 69 66 58 51 49 51 56 55 57 58 57 56 56 55 55 62 65 64 68 67 67 69 72 72 71 72 73 73 73 71 72 72 72 72 71 71 71 71 71 71 72 71 71 72 71 71 71 70
67 69 59 55 51 49 51 56 57 57 59 57 56 57 56 57 64 64 66 67 67 69 70 71 73 72 72 73 73 73 72 71 71 71 71 71 71 71 71 71 73 72 72 72 72 71 71 70 70
65 64 60 53 51 52 54 56 57 57 58 58 58 56 60 64 65 66 68 68 68 68 71 71 72 69 72 73 73 73 73 72 72 72 72 72 72 72 72 72 72 72 71 71 71 71 70 70 70
65 60 54 52 52 54 55 57 58 57 59 59 59 56 60 63 66 68 68 67 66 67 71 71 70 71 72 73 73 73 73 73 73 73 73 73 72 72 72 72 71 71 70 70 70 70 71 70 68
58 56 51 49 53 55 56 58 58 57 59 58 56 57 59 66 67 67 67 67 67 68 72 71 71 72 73 72 71 71 71 71 71 73 73 72 72 72 72 71 71 70 68 69 70 70 70 70 70
55 52 52 52 53 53 55 59 57 57 58 58 57 56 62 65 68 68 67 68 68 70 71 71 70 71 72 72 70 70 70 71 72 72 72 72 72 71 71 71 71 69 69 69 70 70 70 70 70
58 52 51 52 52 52 57 56 58 57 58 61 59 57 58 64 68 68 68 68 69 70 70 70 70 72 73 72 70 69 70 71 71 71 72 72 73 71 71 71 71 69 69 68 69 70 71 71 71
54 49 49 50 52 51 58 54 58 59 59 60 60 60 60 66 67 67 67 68 69 70 70 71 72 73 72 70 70 70 69 68 70 70 70 72 72 71 70 70 69 68 69 71 69 70 70 71 70
53 50 49 51 54 53 57 55 58 59 59 59 59 61 63 65 66 65 66 67 68 69 69 71 70 70 69 67 71 66 70 71 69 71 71 73 73 72 70 68 67 70 71 70 71 71 70 67 65
53 50 48 52 54 56 57 56 59 57 56 57 57 62 63 64 64 63 64 65 66 66 68 71 70 70 70 71 71 71 70 71 71 71 73 73 73 71 69 69 68 70 70 68 69 70 70 69 67
51 53 52 52 56 56 56 58 56 57 56 58 59 63 64 63 63 63 61 63 63 65 67 70 69 70 71 70 71 71 71 71 69 71 74 74 71 71 70 69 67 69 69 68 68 68 68 68 70
51 45 49 52 57 57 58 57 57 57 58 59 61 63 63 63 63 64 64 64 64 65 67 69 70 71 71 71 69 72 71 70 70 72 72 71 70 71 71 70 70 69 69 67 66 69 68 68 66
29 38 47 49 51 55 55 57 57 57 59 59 60 61 62 62 63 64 64 64 65 65 65 67 69 70 70 71 71 72 71 71 70 70 70 69 69 70 70 69 70 68 69 67 67 68 67 66 67
29 39 45 50 50 52 57 53 54 58 59 58 58 59 60 61 62 63 63 63 64 66 66 67 68 69 70 71 71 71 71 70 69 71 70 67 67 69 70 70 70 68 70 70 68 68 68 66 64
38 40 31 41 50 50 52 43 50 58 58 57 57 58 59 59 60 61 62 63 64 65 67 68 69 68 69 69 70 70 70 70 70 70 70 68 70 72 71 69 70 70 70 69 68 67 66 65 65
31 26 28 30 43 50 51 40 51 58 57 57 58 58 58 59 60 61 62 63 63 65 67 68 69 69 69 70 69 70 70 69 69 70 68 69 70 72 70 69 70 71 69 67 67 68 67 64 64
24 24 25 25 30 40 38 40 40 56 57 56 57 58 58 58 59 60 62 63 64 65 67 68 69 70 70 70 70 70 69 69 70 69 68 70 70 71 71 70 71 69 67 67 68 69 67 65 64
25 24 24 24 26 29 31 33 36 46 55 55 57 57 58 58 59 60 61 62 63 65 67 68 68 69 70 69 68 69 67 68 68 69 69 70 71 71 72 69 70 69 69 68 68 67 65 63 65
24 23 22 24 28 26 32 35 39 47 51 54 57 57 57 58 59 60 61 61 62 64 66 67 68 69 69 68 68 69 69 68 68 68 69 69 70 71 71 71 69 69 68 68 67 65 62 62 65
22 22 23 23 24 29 39 33 39 43 51 54 56 56 56 57 57 59 60 60 61 63 66 67 68 69 69 69 68 69 69 69 67 67 67 68 69 70 71 71 71 71 70 66 67 66 65 63 65
21 24 23 24 22 16 30 16 30 31 35 45 49 54 55 56 57 58 60 60 61 63 66 67 68 69 69 69 68 67 67 65 66 67 67 66 68 69 70 70 71 72 70 69 68 68 67 67 63
24 22 22 23 22 21 19 19 21 28 25 28 36 49 54 55 55 57 58 59 61 63 65 66 68 69 69 69 68 68 67 67 68 66 67 68 67 69 69 70 70 70 71 71 70 69 69 68 66
25 25 20 20 18 15 17 17 17 19 23 30 35 44 53 56 56 57 59 59 61 63 64 66 67 68 69 69 69 68 67 67 66 66 64 64 65 68 69 70 70 71 70 71 71 71 72 71 69
24 23 22 19 14 12 23 19 17 24 29 33 39 38 48 56 57 57 58 59 60 62 64 65 67 68 69 69 69 69 68 68 67 67 65 64 65 68 68 68 69 69 70 70 71 71 71 71 69
23 22 20 17 15 15 22 17 15 26 34 38 45 45 51 54 56 57 58 59 60 62 64 65 66 67 68 68 68 69 69 68 67 67 65 65 64 66 68 70 68 69 70 70 70 69 69 68 68
22 19 18 17 17 15 17 20 21 28 33 36 40 41 49 54 55 56 57 59 60 61 63 65 66 67 67 68 68 69 69 68 67 66 67 66 65 64 67 68 68 69 70 71 70 68 69 69 68
24 20 18 18 18 17 17 20 18 26 33 35 35 38 44 47 54 55 56 57 60 61 63 64 65 66 66 67 67 67 67 68 68 68 67 66 66 66 64 67 66 67 68 70 71 70 70 70 69
19 19 18 18 17 19 18 18 28 32 35 36 36 38 39 48 48 54 56 57 59 61 62 63 65 65 66 66 67 67 67 67 68 67 67 66 66 66 67 68 69 68 68 69 71 71 70 70 70
27 22 20 21 24 19 19 19 28 34 35 36 37 41 44 50 49 52 56 58 59 60 62 63 64 65 65 66 68 67 67 67 66 66 67 67 66 67 68 69 70 69 69 69 70 69 68 70 69
Wind_Speed
1 1 1 1 2 5 4 3 2 6 4 2 12 4 3 2 1 2 6 8 22 23 18 15 17 14 9 14 14 13 14 15 16 16 15 15 14 12 10 8 6 7 9 10 9 9 7 8 9
0 2 1 1 3 7 3 1 4 8 4 7 9 6 2 1 2 6 16 13 23 23 20 15 14 18 15 14 15 14 14 14 14 15 14 13 12 10 9 7 7 8 9 9 8 8 7 7 10
2 1 2 3 4 5 6 3 2 2 1 4 5 4 2 2 3 16 6 20 22 20 18 20 16 13 16 16 15 14 14 14 13 12 12 11 11 10 8 8 8 9 9 9 8 7 6 6 7
2 1 3 4 5 2 3 5 1 3 4 5 5 5 4 3 6 5 17 21 22 21 19 19 18 19 11 16 16 15 14 13 11 10 10 9 9 8 9 8 9 8 8 7 6 5 6 6 7
1 2 4 4 1 0 2 2 2 2 2 3 3 4 4 3 6 14 20 19 21 19 15 16 17 16 13 15 16 14 13 11 9 8 9 8 8 8 8 8 8 7 7 7 5 4 4 5 7
2 1 4 5 2 2 1 2 1 0 3 4 4 7 4 5 13 16 19 18 18 19 16 15 17 15 12 11 12 15 12 4 4 7 7 7 8 6 6 8 7 7 6 6 4 3 6 6 5
4 3 3 2 4 1 3 6 4 1 3 2 9 5 3 7 12 16 18 16 15 15 14 13 14 14 12 11 11 14 15 12 4 2 4 6 6 7 6 6 7 7 5 5 4 4 7 7 6
3 2 2 1 3 2 6 6 3 3 0 4 3 3 6 13 17 17 16 16 15 15 14 13 13 12 11 9 13 14 16 14 12 11 8 8 6 6 6 4 5 6 8 7 4 3 7 6 5
2 2 4 2 1 5 6 4 4 2 3 2 3 3 5 23 20 19 17 16 16 13 13 12 10 8 9 6 7 12 15 15 13 10 5 6 6 6 5 4 5 7 9 7 3 2 6 5 4
2 2 3 1 2 2 4 5 4 3 2 3 3 4 18 24 22 21 20 18 18 16 14 12 10 11 10 7 9 13 9 10 10 7 6 5 5 4 5 5 5 7 8 3 2 3 7 5 6
1 2 1 3 5 2 4 3 2 3 5 6 5 12 21 24 21 20 20 19 19 18 15 12 11 10 10 9 9 10 13 9 8 6 6 6 6 4 4 5 5 5 3 2 3 4 6 7 5
3 5 5 2 4 6 4 1 4 10 3 3 6 15 22 23 22 21 21 19 20 19 18 14 12 11 10 9 8 9 8 8 10 9 8 7 6 6 5 6 6 5 2 4 2 1 3 6 5
3 7 2 5 6 5 5 8 5 9 9 7 15 18 21 21 20 19 19 19 18 18 18 16 14 12 10 9 8 8 9 10 8 7 6 6 6 6 6 6 5 3 5 5 7 3 4 6 5
8 9 6 2 7 4 6 4 3 2 12 14 17 18 19 20 21 20 18 19 19 17 17 16 15 13 12 10 10 9 8 9 8 7 7 6 5 5 6 6 4 7 7 5 4 2 3 3 2
7 7 7 1 3 4 6 11 13 6 14 16 17 17 18 19 20 21 20 20 19 17 16 17 16 15 14 12 10 9 9 9 9 7 8 8 7 6 8 7 6 6 5 4 3 1 0 2 4
4 2 6 3 0 1 5 13 6 13 18 17 17 18 19 21 21 20 20 20 18 17 17 17 15 15 14 12 11 10 10 9 8 8 7 8 7 6 6 7 5 5 5 4 4 3 0 4 3
6 5 7 8 2 1 8 16 3 12 17 17 19 20 21 19 20 19 20 20 20 20 18 18 17 17 16 13 11 9 8 9 9 8 8 7 5 5 5 5 4 5 7 5 4 3 1 1 2
5 6 8 10 5 6 12 25 19 10 16 20 20 21 21 22 25 23 22 20 19 18 19 19 18 16 16 12 9 7 9 8 7 8 7 7 5 5 5 4 4 6 5 3 3 1 2 3 5
5 9 13 19 8 7 6 18 25 12 20 21 22 23 23 26 25 21 20 20 19 18 18 20 21 17 16 15 13 10 12 9 8 7 8 8 7 5 5 4 5 5 6 5 5 1 2 3 3
5 10 11 15 2 6 9 17 19 10 19 25 24 25 26 23 22 22 22 21 22 21 20 20 21 21 20 17 16 8 10 6 9 11 9 10 9 7 6 6 5 5 3 4 6 4 2 3 1
8 7 7 8 17 2 8 12 9 4 13 13 22 24 24 26 25 23 24 25 23 24 23 22 22 22 21 19 15 8 6 3 10 12 13 12 10 9 8 7 6 5 3 4 4 4 2 1 1
7 6 7 11 10 9 4 13 11 4 8 11 15 21 25 26 24 22 24 25 27 26 19 20 22 22 21 21 19 19 16 16 14 14 15 16 14 11 11 9 7 6 5 5 4 5 3 3 1
5 1 6 8 5 6 5 5 6 7 9 13 7 16 20 22 25 25 26 27 26 21 23 21 22 22 22 23 21 20 17 15 10 9 14 18 15 14 13 11 9 8 7 7 5 5 5 4 2
5 11 2 1 1 7 4 4 5 5 11 21 10 6 14 19 23 24 22 20 22 21 21 22 23 23 23 24 24 23 21 17 13 13 14 15 16 15 14 13 11 8 7 7 6 5 5 4 5
5 4 5 3 3 3 3 5 10 12 13 13 15 6 8 16 21 22 23 23 22 25 25 23 24 24 24 24 24 24 23 20 19 17 16 14 14 13 14 14 12 12 10 8 6 7 6 6 6
5 4 4 4 6 5 0 5 3 5 7 8 6 1 3 13 19 23 24 24 25 26 27 26 26 24 25 25 25 23 22 19 19 18 16 16 15 16 14 14 11 12 10 10 10 10 10 9 9
4 7 0 3 1 4 3 5 11 4 5 9 9 8 1 8 15 20 22 24 24 26 28 29 26 25 25 25 22 22 21 21 19 17 17 15 15 14 13 14 13 12 12 12 11 11 11 10 9
9 8 3 3 4 8 4 6 11 7 8 12 14 12 10 6 12 18 22 25 25 26 26 24 25 28 27 26 24 22 21 20 18 17 18 17 15 14 14 14 13 14 14 13 13 12 11 11 10
3 5 3 2 3 8 13 8 8 7 2 11 14 14 13 13 10 18 20 21 23 21 23 25 24 23 22 24 22 22 22 21 20 19 18 18 17 15 15 13 12 14 15 14 14 14 13 12 12
2 2 5 10 8 4 5 11 2 9 3 11 16 16 17 18 12 12 17 19 21 23 22 24 24 26 27 25 24 24 21 21 21 21 19 18 18 16 16 14 13 14 15 15 15 15 13 14 14
Wind_Direction
130 97 29 324 111 81 80 45 95 97 107 343 165 179 198 39 265 6 142 147 145 144 146 135 125 116 145 137 138 138 140 145 144 143 147 147 145 146 144 137 130 127 114 103 105 102 102 108 110
203 140 53 61 85 127 119 91 104 79 96 98 128 113 126 117 70 117 143 158 149 146 146 143 140 153 162 145 146 149 148 146 145 146 148 149 149 151 145 144 142 124 114 106 109 110 114 111 111
242 249 348 55 89 119 133 155 106 25 251 124 141 63 70 61 72 146 134 151 149 147 152 149 154 148 154 153 155 158 157 155 156 152 148 152 149 153 150 150 138 127 112 113 112 119 120 119 114
135 144 68 67 95 138 96 137 50 116 88 75 109 97 90 325 160 156 148 152 151 152 151 154 147 156 177 161 165 160 158 161 158 161 155 157 152 152 145 152 131 126 119 123 133 132 133 128 127
99 66 62 83 68 180 125 205 31 48 79 144 142 133 108 33 131 141 152 155 155 156 150 159 160 163 179 173 170 162 156 157 162 163 157 159 151 150 150 138 131 123 127 127 135 161 159 156 145
65 32 50 61 10 338 173 191 272 323 90 145 121 129 112 125 138 150 155 157 159 157 153 160 172 161 182 176 163 137 111 87 166 164 155 165 157 135 143 135 127 108 127 130 122 115 156 154 148
36 45 55 17 349 302 156 160 205 62 61 142 141 114 111 159 148 155 158 157 161 154 161 166 167 165 181 167 151 135 121 103 54 23 178 158 161 145 158 129 120 128 123 102 104 130 135 118 104
89 85 76 345 347 343 154 176 187 214 24 146 170 149 160 172 155 154 156 158 163 163 156 163 165 167 172 167 148 136 136 155 165 188 199 158 171 158 146 130 131 122 106 115 103 132 144 127 91
125 41 33 4 333 347 148 154 185 173 204 166 156 141 136 149 151 155 158 165 167 167 162 164 159 152 154 157 156 137 157 172 183 192 205 168 159 145 152 156 163 145 138 136 139 24 162 143 133
18 32 344 265 213 296 165 182 158 199 192 225 202 109 143 151 160 162 167 174 174 172 174 174 170 161 154 173 167 152 159 195 190 183 201 166 146 136 171 165 178 175 146 150 245 237 168 175 198
345 309 338 325 223 201 184 214 205 220 252 229 224 159 159 161 168 170 174 181 182 177 175 180 174 166 171 168 162 169 181 183 179 187 182 169 146 179 183 178 196 204 161 168 176 159 213 211 183
312 271 263 309 207 158 193 166 213 222 234 305 182 161 163 170 175 179 179 183 186 181 181 181 182 175 178 177 176 159 169 171 181 194 187 171 167 194 204 193 192 207 231 165 140 205 179 167 159
275 328 313 244 187 231 186 236 228 244 219 131 143 158 171 178 180 188 191 189 187 189 182 184 184 182 180 182 184 177 183 182 177 175 184 178 186 207 211 204 179 184 172 186 183 172 150 151 153
319 303 309 270 218 236 246 265 193 258 168 151 159 172 178 185 190 190 197 197 195 194 189 183 188 185 187 189 189 180 181 181 171 187 182 183 215 203 220 234 180 212 177 175 163 175 71 84 189
314 330 337 19 223 241 213 271 242 177 171 168 177 179 186 197 195 199 198 200 201 196 187 185 189 186 191 191 192 185 189 180 186 195 180 200 210 233 250 249 185 196 187 174 180 211 132 44 63
357 45 360 14 240 286 207 287 304 179 172 186 188 187 196 204 207 205 201 203 201 200 192 188 186 191 191 193 192 191 191 183 187 200 194 201 221 240 243 240 191 193 188 210 203 217 218 51 43
21 331 333 334 339 277 222 289 325 179 189 196 198 198 199 208 212 213 213 207 202 199 194 190 189 193 191 194 195 201 197 189 192 198 203 207 207 218 236 235 195 186 183 204 205 179 28 15 32
336 325 311 307 296 276 270 271 273 207 205 210 207 207 206 205 215 210 208 211 207 202 193 189 187 192 188 189 190 198 205 202 187 201 204 212 221 209 213 224 193 173 173 210 214 335 330 336 323
286 290 306 304 311 284 265 273 288 233 217 223 214 213 213 211 212 210 211 207 205 202 196 192 184 185 181 186 186 196 207 205 202 208 207 206 223 214 220 217 184 192 173 180 178 175 262 279 311
259 296 311 300 225 301 304 291 285 240 232 223 216 216 217 217 210 204 208 205 205 200 199 195 194 183 186 186 192 194 186 203 208 209 209 210 220 210 218 221 208 220 189 175 168 151 189 216 358
258 272 293 300 326 313 306 297 292 267 253 247 232 231 224 215 209 205 204 206 204 206 197 195 192 187 188 187 187 174 136 166 209 219 215 212 214 219 219 220 222 221 231 242 193 193 222 358 31
288 223 272 312 334 324 357 311 299 338 290 246 253 230 227 221 214 212 204 203 204 207 193 183 188 188 189 185 189 191 194 200 205 209 201 207 210 217 223 226 216 204 209 238 200 194 218 266 358
272 176 311 311 292 293 281 274 276 324 344 332 285 234 226 218 211 208 208 205 206 192 192 188 183 188 187 188 190 197 207 204 200 185 194 208 210 214 222 218 220 215 210 209 215 190 209 216 244
302 298 274 87 280 288 13 280 287 360 330 322 324 270 223 212 209 208 207 201 201 193 191 186 187 192 187 191 192 199 205 204 207 198 198 203 206 209 215 211 213 214 217 209 214 201 212 229 235
207 273 294 252 219 292 98 284 266 319 332 321 319 289 221 201 202 201 201 200 196 193 193 190 190 197 193 195 197 199 207 207 210 204 202 191 199 202 205 206 204 210 220 226 221 219 215 225 237
185 222 251 292 282 306 167 253 295 335 321 344 359 354 179 195 197 204 203 200 197 196 195 192 193 196 195 194 198 200 202 208 212 214 209 203 202 202 204 204 205 216 210 221 228 233 241 235 245
155 209 65 205 130 272 262 272 283 240 8 33 35 48 102 201 204 206 202 204 201 199 198 194 192 198 196 199 194 198 202 207 208 211 209 208 205 209 204 203 211 222 218 222 231 238 237 241 244
236 150 232 217 241 266 228 265 280 308 353 359 7 16 355 274 209 205 207 204 204 203 202 201 200 196 199 198 198 198 201 206 208 207 208 210 208 211 209 214 218 225 225 222 226 235 237 238 241
178 217 194 239 224 265 272 260 222 216 335 337 333 341 343 334 244 210 210 210 205 202 201 200 200 201 199 200 201 198 198 202 206 209 208 205 208 208 207 212 218 225 226 223 221 228 238 239 243
263 285 225 248 244 227 276 266 275 214 227 342 326 337 345 341 325 234 206 202 204 202 198 200 198 200 203 201 195 198 197 197 204 210 208 204 205 208 211 208 215 221 226 224 220 228 235 240 243